| time (UTC) | temp C | wind direction | speed KPH | gust KPH | rain 1hr cm | rain 24hr cm | rain mn cm | humidity % | barometer mb |
| 20260507044636 | -2 | 0 | 3.2 | 6.4 | 0.00 | 0.00 | 0.03 | 6550.2 | |
| 20260507044604 | -2 | 0 | 3.2 | 6.4 | 0.00 | 0.00 | 0.03 | 6550.2 | |
| 20260507044400 | -2 | 344 | 1.6 | 6.4 | 0.00 | 0.00 | 0.03 | 6550.2 | |
| 20260507044156 | -2 | 324 | 3.2 | 6.4 | 0.00 | 0.00 | 0.03 | 6550.2 | |
| 20260507044025 | -2 | 338 | 1.6 | 6.4 | 0.00 | 0.00 | 0.03 | 6550.2 | |
| 20260507043952 | -2 | 338 | 1.6 | 6.4 | 0.00 | 0.00 | 0.03 | 6550.2 | |
| 20260507043822 | -2 | 301 | 0.0 | 6.4 | 0.00 | 0.00 | 0.03 | 6550.2 | |
| 20260507043748 | -2 | 301 | 0.0 | 6.4 | 0.00 | 0.00 | 0.03 | 6550.2 | |
| 20260507043544 | -2 | 333 | 4.8 | 6.4 | 0.00 | 0.00 | 0.03 | 6550.2 | |
| 20260507043421 | -2 | 358 | 1.6 | 4.8 | 0.00 | 0.00 | 0.03 | 6550.2 | |
| 20260507043340 | -2 | 358 | 1.6 | 4.8 | 0.00 | 0.00 | 0.03 | 6550.2 | |
| 20260507043136 | -2 | 317 | 4.8 | 6.4 | 0.00 | 0.00 | 0.03 | 6550.2 | |
| 20260507042932 | -2 | 300 | 3.2 | 8.0 | 0.00 | 0.00 | 0.03 | 6550.2 | |
| 20260507042818 | -2 | 317 | 3.2 | 8.0 | 0.00 | 0.00 | 0.03 | 6550.2 | |
| 20260507042728 | -2 | 317 | 3.2 | 8.0 | 0.00 | 0.00 | 0.03 | 6550.2 | |
| 20260507042615 | -2 | 37 | 1.6 | 8.0 | 0.00 | 0.00 | 0.03 | 6550.2 | |
| 20260507042524 | -2 | 37 | 1.6 | 8.0 | 0.00 | 0.00 | 0.03 | 6550.2 | |
| 20260507042403 | -2 | 45 | 0.0 | 4.8 | 0.00 | 0.00 | 0.03 | 6550.2 | |
| 20260507042320 | -2 | 45 | 0.0 | 4.8 | 0.00 | 0.00 | 0.03 | 6550.2 | |
| 20260507042116 | -2 | 350 | 3.2 | 4.8 | 0.00 | 0.00 | 0.03 | 6550.2 | |
| 20260507041912 | -2 | 270 | 0.0 | 3.2 | 0.00 | 0.00 | 0.03 | 6550.2 | |
| 20260507041708 | -2 | 315 | 1.6 | 1.6 | 0.00 | 0.00 | 0.03 | 6550.2 | |
| 20260507041504 | -2 | 45 | 0.0 | 3.2 | 0.00 | 0.00 | 0.03 | 6550.2 | |
| 20260507041300 | -2 | 289 | 1.6 | 3.2 | 0.00 | 0.00 | 0.03 | 6550.2 | |
| 20260507041056 | -2 | 51 | 1.6 | 4.8 | 0.00 | 0.00 | 0.03 | 6550.2 | |
| 20260507040852 | -2 | 328 | 1.6 | 4.8 | 0.00 | 0.00 | 0.03 | 6550.2 | |
| 20260507040648 | -2 | 9 | 1.6 | 3.2 | 0.00 | 0.00 | 0.03 | 6550.2 | |
| 20260507040444 | -2 | 330 | 3.2 | 6.4 | 0.00 | 0.00 | 0.03 | 6550.2 | |
| 20260507040325 | -2 | 315 | 1.6 | 6.4 | 0.00 | 0.00 | 0.03 | 6550.2 | |
| 20260507040240 | -2 | 315 | 1.6 | 6.4 | 0.00 | 0.00 | 0.03 | 6550.2 | |
| 20260507040036 | -2 | 323 | 4.8 | 6.4 | 0.00 | 0.00 | 0.03 | 6550.2 | |
| 20260507035832 | -2 | 315 | 0.0 | 6.4 | 0.00 | 0.00 | 0.03 | 6550.2 | |
| 20260507035628 | -2 | 326 | 1.6 | 6.4 | 0.00 | 0.00 | 0.03 | 6550.2 | |
| 20260507035501 | -2 | 318 | 4.8 | 6.4 | 0.00 | 0.00 | 0.03 | 6550.2 | |
| 20260507035424 | -2 | 318 | 4.8 | 6.4 | 0.00 | 0.00 | 0.03 | 6550.2 | |
| 20260507035220 | -2 | 279 | 1.6 | 4.8 | 0.00 | 0.00 | 0.03 | 6550.2 | |
| 20260507035016 | -2 | 339 | 4.8 | 4.8 | 0.00 | 0.00 | 0.03 | 6550.2 | |
| 20260507034812 | -2 | 292 | 1.6 | 8.0 | 0.00 | 0.00 | 0.03 | 6550.2 | |
| 20260507034404 | -2 | 308 | 1.6 | 4.8 | 0.00 | 0.00 | 0.03 | 6550.2 | |
| 20260507034200 | -2 | 323 | 1.6 | 6.4 | 0.00 | 0.00 | 0.03 | 6550.2 | |
| 20260507033956 | -2 | 329 | 4.8 | 6.4 | 0.00 | 0.00 | 0.03 | 6550.2 | |
| 20260507033837 | -2 | 348 | 1.6 | 6.4 | 0.00 | 0.00 | 0.03 | 6550.2 | |
| 20260507033752 | -2 | 348 | 1.6 | 6.4 | 0.00 | 0.00 | 0.03 | 6550.2 | |
| 20260507033344 | -2 | 334 | 1.6 | 3.2 | 0.00 | 0.00 | 0.03 | 6550.2 | |
| 20260507033140 | -2 | 269 | 0.0 | 3.2 | 0.00 | 0.00 | 0.03 | 6550.2 | |
| 20260507032936 | -2 | 348 | 0.0 | 4.8 | 0.00 | 0.00 | 0.03 | 6550.2 | |
| 20260507032823 | -2 | 315 | 0.0 | 4.8 | 0.00 | 0.00 | 0.03 | 6550.2 | |
| 20260507032732 | -2 | 315 | 0.0 | 4.8 | 0.00 | 0.00 | 0.03 | 6550.2 | |
| 20260507032528 | -2 | 5 | 1.6 | 4.8 | 0.00 | 0.00 | 0.03 | 6550.2 | |
| 20260507032324 | -2 | 314 | 1.6 | 4.8 | 0.00 | 0.00 | 0.03 | 6550.2 | |
| 20260507032120 | -2 | 312 | 0.0 | 4.8 | 0.00 | 0.00 | 0.03 | 6550.2 | |
| 20260507031917 | -2 | 356 | 1.6 | 1.6 | 0.00 | 0.00 | 0.03 | 6550.2 | |
| 20260507031712 | -2 | 66 | 0.0 | 3.2 | 0.00 | 0.00 | 0.03 | 6550.2 | |
| 20260507031509 | -2 | 90 | 0.0 | 3.2 | 0.00 | 0.00 | 0.03 | 6550.2 | |
| 20260507031304 | -2 | 331 | 1.6 | 3.2 | 0.00 | 0.00 | 0.03 | 6550.2 | |
| 20260507031101 | -2 | 324 | 1.6 | 4.8 | 0.00 | 0.00 | 0.03 | 6550.2 | |
| 20260507030653 | -2 | 339 | 3.2 | 4.8 | 0.00 | 0.00 | 0.03 | 6550.2 | |
| 20260507030449 | -2 | 325 | 1.6 | 1.6 | 0.00 | 0.00 | 0.03 | 6550.2 | |
| 20260507030323 | -2 | 0 | 0.0 | 1.6 | 0.00 | 0.00 | 0.03 | 6550.2 | |
| 20260507030245 | -2 | 0 | 0.0 | 1.6 | 0.00 | 0.00 | 0.03 | 6550.2 | |
| 20260507030122 | -2 | 327 | 0.0 | 4.8 | 0.00 | 0.00 | 0.03 | 6550.2 | |
| 20260507030040 | -2 | 327 | 0.0 | 4.8 | 0.00 | 0.00 | 0.03 | 6550.2 | |
| 20260507025837 | -2 | 301 | 0.0 | 4.8 | 0.00 | 0.00 | 0.03 | 6550.2 | |
| 20260507025632 | -2 | 45 | 0.0 | 1.6 | 0.00 | 0.00 | 0.03 | 6550.2 | |
| 20260507025503 | -2 | 315 | 0.0 | 3.2 | 0.00 | 0.00 | 0.03 | 6550.2 | |
| 20260507025429 | -2 | 315 | 0.0 | 3.2 | 0.00 | 0.00 | 0.03 | 6550.2 | |
| 20260507025224 | -2 | 313 | 0.0 | 4.8 | 0.00 | 0.00 | 0.03 | 6550.2 | |
| 20260507025055 | -2 | 312 | 0.0 | 4.8 | 0.00 | 0.00 | 0.00 | 6550.2 | |
| 20260507025021 | -2 | 312 | 0.0 | 4.8 | 0.00 | 0.00 | 0.00 | 6550.2 | |
| 20260507024816 | -2 | 293 | 1.6 | 4.8 | 0.00 | 0.00 | 0.00 | 6550.2 | |
| 20260507024613 | -2 | 61 | 0.0 | 3.2 | 0.00 | 0.00 | 0.00 | 6550.2 | |
| 20260507024408 | -2 | 331 | 1.6 | 1.6 | 0.00 | 0.00 | 0.00 | 6550.2 | |
| 20260507024205 | -2 | 89 | 0.0 | 3.2 | 0.00 | 0.00 | 0.00 | 6550.2 | |
| 20260507024000 | -2 | 50 | 0.0 | 3.2 | 0.00 | 0.00 | 0.00 | 6550.2 | |
| 20260507023757 | -2 | 341 | 0.0 | 3.2 | 0.00 | 0.00 | 0.00 | 6550.2 | |
| 20260507023349 | -2 | 340 | 0.0 | 3.2 | 0.00 | 0.00 | 0.00 | 6550.2 | |
| 20260507023145 | -2 | 313 | 1.6 | 3.2 | 0.00 | 0.00 | 0.00 | 6550.2 | |
| 20260507022737 | -2 | 299 | 0.0 | 6.4 | 0.00 | 0.00 | 0.00 | 6550.2 | |
| 20260507022533 | -2 | 307 | 1.6 | 6.4 | 0.00 | 0.00 | 0.00 | 6550.2 | |
| 20260507022400 | -2 | 315 | 0.0 | 3.2 | 0.00 | 0.00 | 0.00 | 6550.2 | |
| 20260507022329 | -2 | 315 | 0.0 | 3.2 | 0.00 | 0.00 | 0.00 | 6550.2 | |
| 20260507022208 | -2 | 350 | 1.6 | 3.2 | 0.00 | 0.00 | 0.00 | 6550.2 | |
| 20260507022125 | -2 | 350 | 1.6 | 3.2 | 0.00 | 0.00 | 0.00 | 6550.2 | |
| 20260507021921 | -2 | 338 | 0.0 | 1.6 | 0.00 | 0.00 | 0.00 | 6550.2 | |
| 20260507021825 | -2 | 294 | 1.6 | 1.6 | 0.00 | 0.00 | 0.00 | 6550.2 | |
| 20260507021717 | -2 | 294 | 1.6 | 1.6 | 0.00 | 0.00 | 0.00 | 6550.2 | |
| 20260507021513 | -2 | 225 | 0.0 | 3.2 | 0.00 | 0.00 | 0.00 | 6550.2 | |
| 20260507021309 | -2 | 270 | 0.0 | 3.2 | 0.00 | 0.00 | 0.00 | 6550.2 | |
| 20260507021105 | -2 | 317 | 1.6 | 3.2 | 0.00 | 0.00 | 0.00 | 6550.2 | |
| 20260507020901 | -2 | 319 | 1.6 | 3.2 | 0.00 | 0.00 | 0.00 | 6550.2 | |
| 20260507020657 | -2 | 224 | 0.0 | 4.8 | 0.00 | 0.00 | 0.00 | 6550.2 | |
| 20260507020542 | -2 | 301 | 1.6 | 4.8 | 0.00 | 0.00 | 0.00 | 6550.2 | |
| 20260507020453 | -2 | 301 | 1.6 | 4.8 | 0.00 | 0.00 | 0.00 | 6550.2 | |
| 20260507020249 | -2 | 289 | 0.0 | 3.2 | 0.00 | 0.00 | 0.00 | 6550.2 | |
| 20260507020117 | -2 | 335 | 1.6 | 3.2 | 0.00 | 0.00 | 0.00 | 6550.2 | |
| 20260507020045 | -2 | 335 | 1.6 | 3.2 | 0.00 | 0.00 | 0.00 | 6550.2 | |
| 20260507015934 | -2 | 339 | 1.6 | 3.2 | 0.00 | 0.00 | 0.00 | 6550.2 | |
| 20260507015841 | -2 | 339 | 1.6 | 3.2 | 0.00 | 0.00 | 0.00 | 6550.2 | |
| 20260507015637 | -2 | 315 | 1.6 | 4.8 | 0.00 | 0.00 | 0.00 | 6550.2 | |
| 20260507015433 | -2 | 279 | 1.6 | 4.8 | 0.00 | 0.00 | 0.00 | 6550.2 | |
| 20260507015229 | -2 | 312 | 1.6 | 4.8 | 0.00 | 0.00 | 0.00 | 6550.2 | |
| 20260507015025 | -2 | 341 | 3.2 | 4.8 | 0.00 | 0.00 | 0.00 | 6550.2 | |
| 20260507014821 | -2 | 319 | 1.6 | 4.8 | 0.00 | 0.00 | 0.00 | 6550.2 | |
| 20260507014413 | -2 | 296 | 3.2 | 6.4 | 0.00 | 0.00 | 0.00 | 6550.2 | |
| 20260507014209 | -2 | 328 | 3.2 | 6.4 | 0.00 | 0.00 | 0.00 | 6550.2 | |
| 20260507014005 | -2 | 294 | 4.8 | 6.4 | 0.00 | 0.00 | 0.00 | 6550.2 | |
| 20260507013801 | -2 | 340 | 1.6 | 4.8 | 0.00 | 0.00 | 0.00 | 6550.2 | |
| 20260507013557 | -2 | 333 | 3.2 | 4.8 | 0.00 | 0.00 | 0.00 | 6550.2 | |
| 20260507013353 | -2 | 346 | 1.6 | 6.4 | 0.00 | 0.00 | 0.00 | 6550.2 | |
| 20260507013149 | -2 | 313 | 4.8 | 6.4 | 0.00 | 0.00 | 0.00 | 6550.2 | |
| 20260507012945 | -2 | 351 | 1.6 | 6.4 | 0.00 | 0.00 | 0.00 | 6550.2 | |
| 20260507012741 | -2 | 325 | 1.6 | 6.4 | 0.00 | 0.00 | 0.00 | 6550.2 | |
| 20260507012333 | -2 | 306 | 4.8 | 4.8 | 0.00 | 0.00 | 0.00 | 6550.2 | |
| 20260507012129 | -2 | 315 | 1.6 | 6.4 | 0.00 | 0.00 | 0.00 | 6550.2 | |
| 20260507011925 | -2 | 299 | 1.6 | 6.4 | 0.00 | 0.00 | 0.00 | 6550.2 | |
| 20260507011517 | -2 | 315 | 1.6 | 6.4 | 0.00 | 0.00 | 0.00 | 6550.2 | |
| 20260507011313 | -2 | 270 | 3.2 | 3.2 | 0.00 | 0.00 | 0.00 | 6550.2 | |
| 20260507011109 | -2 | 45 | 1.6 | 3.2 | 0.00 | 0.00 | 0.00 | 6550.2 | |
| 20260507010905 | -2 | 45 | 0.0 | 3.2 | 0.00 | 0.00 | 0.00 | 6550.2 | |
| 20260507010701 | -2 | 312 | 1.6 | 3.2 | 0.00 | 0.00 | 0.00 | 6550.2 | |
| 20260507010457 | -2 | 300 | 1.6 | 4.8 | 0.00 | 0.00 | 0.00 | 6550.2 | |
| 20260507010253 | -2 | 79 | 1.6 | 4.8 | 0.00 | 0.00 | 0.00 | 6550.2 | |
| 20260507010131 | -2 | 26 | 4.8 | 4.8 | 0.00 | 0.00 | 0.00 | 6550.2 | |
| 20260507010049 | -2 | 26 | 4.8 | 4.8 | 0.00 | 0.00 | 0.00 | 6550.2 | |
| 20260507005845 | -2 | 302 | 0.0 | 3.2 | 0.00 | 0.00 | 0.00 | 6550.2 | |
| 20260507005641 | -2 | 304 | 1.6 | 3.2 | 0.00 | 0.00 | 0.00 | 6550.2 | |
| 20260507005437 | -2 | 45 | 0.0 | 3.2 | 0.00 | 0.00 | 0.00 | 6550.2 | |
| 20260507005233 | -2 | 276 | 0.0 | 3.2 | 0.00 | 0.00 | 0.00 | 6550.2 | |
| 20260507005029 | -2 | 0 | 1.6 | 6.4 | 0.00 | 0.00 | 0.00 | 6550.2 | |
| 20260507004621 | -2 | 324 | 4.8 | 6.4 | 0.00 | 0.00 | 0.00 | 6550.2 | |
| 20260507004417 | -2 | 44 | 1.6 | 1.6 | 0.00 | 0.00 | 0.00 | 6550.2 | |
| 20260507004214 | -2 | 112 | 0.0 | 0.0 | 0.00 | 0.00 | 0.00 | 6550.2 | |
| 20260507004022 | -2 | 135 | 0.0 | 3.2 | 0.00 | 0.00 | 0.03 | 6550.2 | |
| 20260507003818 | -2 | 90 | 0.0 | 3.2 | 0.00 | 0.00 | 0.03 | 6550.2 | |
| 20260507003614 | -2 | 25 | 0.0 | 4.8 | 0.00 | 0.00 | 0.03 | 6550.2 | |
| 20260507003206 | -2 | 37 | 1.6 | 6.4 | 0.00 | 0.00 | 0.03 | 6550.2 | |
| 20260507003002 | -2 | 354 | 1.6 | 6.4 | 0.00 | 0.00 | 0.03 | 6550.2 | |
| 20260507002758 | -2 | 316 | 6.4 | 6.4 | 0.00 | 0.00 | 0.03 | 6550.2 | |
| 20260507002554 | -2 | 321 | 3.2 | 6.4 | 0.00 | 0.00 | 0.03 | 6550.2 | |
| 20260507002350 | -2 | 317 | 3.2 | 6.4 | 0.00 | 0.00 | 0.03 | 6550.2 | |
| 20260507001942 | -2 | 317 | 1.6 | 6.4 | 0.00 | 0.00 | 0.03 | 6550.2 | |
| 20260507001738 | -2 | 327 | 4.8 | 6.4 | 0.00 | 0.00 | 0.03 | 6550.2 | |
| 20260507001534 | -2 | 315 | 0.0 | 4.8 | 0.00 | 0.00 | 0.03 | 6550.2 | |
| 20260507001330 | -2 | 359 | 1.6 | 4.8 | 0.00 | 0.00 | 0.03 | 6550.2 | |
| 20260507001126 | -2 | 0 | 1.6 | 3.2 | 0.00 | 0.00 | 0.03 | 6550.2 | |
| 20260507000922 | -2 | 22 | 0.0 | 3.2 | 0.00 | 0.00 | 0.03 | 6550.2 | |
| 20260507000514 | -2 | 281 | 0.0 | 3.2 | 0.00 | 0.00 | 0.03 | 6550.2 | |
| 20260507000310 | -2 | 90 | 0.0 | 3.2 | 0.00 | 0.00 | 0.03 | 6550.2 | |
| 20260507000142 | -2 | 74 | 1.6 | 1.6 | 0.00 | 0.00 | 0.03 | 6550.2 | |
| 20260507000106 | -2 | 74 | 1.6 | 1.6 | 0.00 | 0.00 | 0.03 | 6550.2 | |
| 20260506235902 | -2 | 337 | 1.6 | 1.6 | 0.00 | 0.00 | 0.03 | 6550.2 | |
| 20260506235658 | -2 | 243 | 0.0 | 1.6 | 0.00 | 0.00 | 0.03 | 6550.2 | |
| 20260506235454 | -2 | 324 | 1.6 | 4.8 | 0.00 | 0.00 | 0.03 | 6550.2 | |
| 20260506235250 | -2 | 315 | 0.0 | 4.8 | 0.00 | 0.00 | 0.03 | 6550.2 | |
| 20260506235046 | -2 | 18 | 1.6 | 6.4 | 0.00 | 0.00 | 0.03 | 6550.2 | |
| 20260506234842 | -2 | 45 | 0.0 | 6.4 | 0.00 | 0.00 | 0.03 | 6550.2 | |
| 20260506234638 | -2 | 279 | 4.8 | 4.8 | 0.00 | 0.00 | 0.03 | 6550.2 | |
| 20260506234434 | -2 | 0 | 1.6 | 1.6 | 0.00 | 0.00 | 0.03 | 6550.2 | |
| 20260506234306 | -2 | 89 | 0.0 | 3.2 | 0.00 | 0.00 | 0.03 | 6550.2 | |
| 20260506234230 | -2 | 89 | 0.0 | 3.2 | 0.00 | 0.00 | 0.03 | 6550.2 | |
| 20260506234026 | -2 | 234 | 0.0 | 3.2 | 0.00 | 0.00 | 0.03 | 6550.2 | |
| 20260506233822 | -2 | 90 | 0.0 | 3.2 | 0.00 | 0.00 | 0.00 | 6550.2 | |
| 20260506233618 | -2 | 329 | 0.0 | 3.2 | 0.00 | 0.00 | 0.00 | 6550.2 | |
| 20260506233414 | -2 | 270 | 0.0 | 6.4 | 0.00 | 0.00 | 0.00 | 6550.2 | |
| 20260506233210 | -2 | 16 | 1.6 | 6.4 | 0.00 | 0.00 | 0.00 | 6550.2 | |
| 20260506233006 | -2 | 18 | 4.8 | 6.4 | 0.00 | 0.00 | 0.00 | 6550.2 | |
| 20260506232802 | -2 | 333 | 3.2 | 6.4 | 0.00 | 0.00 | 0.00 | 6550.2 | |
| 20260506232558 | -2 | 349 | 3.2 | 6.4 | 0.00 | 0.00 | 0.00 | 6550.2 | |
| 20260506232354 | -2 | 0 | 0.0 | 4.8 | 0.00 | 0.00 | 0.00 | 6550.2 | |
| 20260506232241 | -2 | 103 | 1.6 | 1.6 | 0.00 | 0.00 | 0.00 | 6550.2 | |
| 20260506232234 | -2 | 44 | 6.4 | 6.4 | 0.00 | 0.00 | 0.00 | 6550.2 | |
| 20260506232150 | -2 | 103 | 1.6 | 1.6 | 0.00 | 0.00 | 0.00 | 6550.2 | |
| 20260506232142 | -2 | 44 | 6.4 | 6.4 | 0.00 | 0.00 | 0.00 | 6550.2 | |
| 20260506231734 | -2 | 42 | 3.2 | 6.4 | 0.00 | 0.00 | 0.00 | 6550.2 | |
| 20260506231702 | -2 | 76 | 4.8 | 6.4 | 0.00 | 0.00 | 0.00 | 6550.2 | |
| 20260506231530 | -2 | 76 | 4.8 | 6.4 | 0.00 | 0.00 | 0.00 | 6550.2 | |
| 20260506231326 | -2 | 13 | 4.8 | 4.8 | 0.00 | 0.00 | 0.00 | 6550.2 | |
| 20260506231122 | -2 | 109 | 1.6 | 3.2 | 0.00 | 0.00 | 0.00 | 6550.2 | |
| 20260506231000 | -2 | 58 | 3.2 | 8.0 | 0.00 | 0.00 | 0.00 | 6550.2 | |
| 20260506230918 | -2 | 58 | 3.2 | 8.0 | 0.00 | 0.00 | 0.00 | 6550.2 | |
| 20260506230714 | -2 | 82 | 3.2 | 8.0 | 0.00 | 0.00 | 0.00 | 6550.2 | |
| 20260506230558 | -2 | 359 | 4.8 | 6.4 | 0.00 | 0.00 | 0.00 | 6550.2 | |
| 20260506230510 | -2 | 359 | 4.8 | 6.4 | 0.00 | 0.00 | 0.00 | 6550.2 | |
| 20260506230306 | -2 | 44 | 3.2 | 6.4 | 0.00 | 0.00 | 0.00 | 6550.2 | |
| 20260506230138 | -2 | 91 | 0.0 | 6.4 | 0.00 | 0.00 | 0.00 | 6550.2 | |
| 20260506225858 | -2 | 338 | 3.2 | 6.4 | 0.00 | 0.00 | 0.00 | 6550.2 | |
| 20260506225654 | -2 | 337 | 3.2 | 8.0 | 0.00 | 0.00 | 0.00 | 6550.2 | |
| 20260506225450 | -2 | 307 | 1.6 | 8.0 | 0.00 | 0.00 | 0.00 | 6550.2 | |
| 20260506225246 | -2 | 33 | 3.2 | 8.0 | 0.00 | 0.00 | 0.00 | 6550.2 | |
| 20260506225042 | -2 | 327 | 3.2 | 6.4 | 0.00 | 0.00 | 0.00 | 6550.2 | |
| 20260506224838 | -2 | 331 | 6.4 | 6.4 | 0.00 | 0.00 | 0.00 | 6550.2 | |
| 20260506224712 | -2 | 331 | 6.4 | 6.4 | 0.00 | 0.00 | 0.00 | 6550.2 | |
| 20260506224634 | -2 | 331 | 6.4 | 6.4 | 0.00 | 0.00 | 0.00 | 6550.2 | |
| 20260506224505 | -2 | 20 | 0.0 | 6.4 | 0.00 | 0.00 | 0.00 | 6550.2 | |
| 20260506224430 | -2 | 20 | 0.0 | 6.4 | 0.00 | 0.00 | 0.00 | 6550.2 | |
| 20260506224022 | -2 | 6 | 1.6 | 6.4 | 0.00 | 0.00 | 0.00 | 6550.2 | |
| 20260506223818 | -2 | 275 | 1.6 | 6.4 | 0.00 | 0.00 | 0.00 | 6550.2 | |
| 20260506223659 | -2 | 326 | 3.2 | 4.8 | 0.00 | 0.00 | 0.00 | 6550.2 | |
| 20260506223614 | -2 | 326 | 3.2 | 4.8 | 0.00 | 0.00 | 0.00 | 6550.2 | |
| 20260506223446 | -2 | 289 | 1.6 | 4.8 | 0.00 | 0.00 | 0.00 | 6550.2 | |
| 20260506223411 | -2 | 289 | 1.6 | 4.8 | 0.00 | 0.00 | 0.00 | 6550.2 | |
| 20260506223105 | -2 | 352 | 1.6 | 4.8 | 0.00 | 0.00 | 0.00 | 6550.2 | |
| 20260506223003 | -2 | 352 | 1.6 | 4.8 | 0.00 | 0.00 | 0.00 | 6550.2 | |
| 20260506222758 | -2 | 273 | 1.6 | 6.4 | 0.00 | 0.00 | 0.00 | 6550.2 | |
| 20260506222627 | -2 | 261 | 0.0 | 6.4 | 0.00 | 0.00 | 0.00 | 6550.2 | |
| 20260506222555 | -2 | 261 | 0.0 | 6.4 | 0.00 | 0.00 | 0.00 | 6550.2 | |
| 20260506222350 | -2 | 333 | 4.8 | 8.0 | 0.00 | 0.00 | 0.00 | 6550.2 | |
| 20260506222147 | -2 | 324 | 6.4 | 8.0 | 0.00 | 0.00 | 0.00 | 6550.2 | |
| 20260506221942 | -2 | 305 | 4.8 | 4.8 | 0.00 | 0.00 | 0.00 | 6550.2 | |
| 20260506221739 | -2 | 99 | 0.0 | 0.0 | 0.00 | 0.00 | 0.00 | 6550.2 | |
| 20260506221614 | -2 | 18 | 1.6 | 8.0 | 0.00 | 0.00 | 0.00 | 6550.2 | |
| 20260506221410 | -2 | 330 | 6.4 | 8.0 | 0.00 | 0.00 | 0.00 | 6550.2 | |
| 20260506221247 | -2 | 0 | 1.6 | 8.0 | 0.00 | 0.00 | 0.00 | 6550.2 | |
| 20260506221206 | -2 | 0 | 1.6 | 8.0 | 0.00 | 0.00 | 0.00 | 6550.2 | |
| 20260506221002 | -2 | 335 | 1.6 | 8.0 | 0.00 | 0.00 | 0.00 | 6550.2 | |
| 20260506220758 | -2 | 318 | 6.4 | 8.0 | 0.00 | 0.00 | 0.00 | 6550.2 | |
| 20260506220554 | -2 | 53 | 4.8 | 8.0 | 0.00 | 0.00 | 0.00 | 6550.2 | |
| 20260506220350 | -2 | 325 | 4.8 | 9.7 | 0.00 | 0.00 | 0.00 | 6550.2 | |
| 20260506220228 | -2 | 8 | 1.6 | 9.7 | 0.00 | 0.00 | 0.00 | 6550.2 | |
| 20260506220146 | -2 | 8 | 1.6 | 9.7 | 0.00 | 0.00 | 0.00 | 6550.2 | |
| 20260506215942 | -2 | 358 | 3.2 | 9.7 | 0.00 | 0.00 | 0.00 | 6550.2 | |
| 20260506215738 | -2 | 358 | 4.8 | 9.7 | 0.00 | 0.00 | 0.00 | 6550.2 | |
| 20260506215534 | -2 | 325 | 1.6 | 8.0 | 0.00 | 0.00 | 0.00 | 6550.2 | |
| 20260506215330 | -2 | 328 | 6.4 | 8.0 | 0.00 | 0.00 | 0.00 | 6550.2 | |
| 20260506215126 | -2 | 351 | 4.8 | 8.0 | 0.00 | 0.00 | 0.00 | 6550.2 | |
| 20260506214922 | -2 | 322 | 1.6 | 6.4 | 0.00 | 0.00 | 0.03 | 6550.2 | |
| 20260506214718 | -2 | 326 | 1.6 | 6.4 | 0.00 | 0.00 | 0.03 | 6550.2 | |
| 20260506214514 | -2 | 221 | 3.2 | 11.3 | 0.00 | 0.00 | 0.03 | 6550.2 | |
| 20260506214310 | -2 | 20 | 1.6 | 12.9 | 0.00 | 0.00 | 0.03 | 6550.2 | |
| 20260506214147 | -2 | 311 | 9.7 | 12.9 | 0.00 | 0.00 | 0.03 | 6550.2 | |
| 20260506214106 | -2 | 311 | 9.7 | 12.9 | 0.00 | 0.00 | 0.03 | 6550.2 | |
| 20260506213902 | -2 | 333 | 8.0 | 12.9 | 0.00 | 0.00 | 0.03 | 6550.2 | |
| 20260506213658 | -2 | 52 | 8.0 | 8.0 | 0.00 | 0.00 | 0.03 | 6550.2 | |
| 20260506213454 | -2 | 318 | 4.8 | 6.4 | 0.00 | 0.00 | 0.03 | 6550.2 | |
| 20260506213250 | -2 | 5 | 1.6 | 8.0 | 0.00 | 0.00 | 0.03 | 6550.2 | |
| 20260506213046 | -2 | 308 | 4.8 | 8.0 | 0.00 | 0.00 | 0.03 | 6550.2 | |
| 20260506212842 | -2 | 324 | 4.8 | 8.0 | 0.00 | 0.00 | 0.03 | 6550.2 | |
| 20260506212638 | -2 | 314 | 3.2 | 4.8 | 0.00 | 0.00 | 0.03 | 6550.2 | |
| 20260506212434 | -2 | 358 | 1.6 | 8.0 | 0.00 | 0.00 | 0.03 | 6550.2 | |
| 20260506212230 | -2 | 236 | 0.0 | 9.7 | 0.00 | 0.00 | 0.03 | 6550.2 | |
| 20260506212124 | -2 | 354 | 1.6 | 9.7 | 0.00 | 0.00 | 0.03 | 6550.2 | |
| 20260506212026 | -2 | 354 | 1.6 | 9.7 | 0.00 | 0.00 | 0.03 | 6550.2 | |
| 20260506211853 | -2 | 292 | 4.8 | 9.7 | 0.00 | 0.00 | 0.03 | 6550.2 | |
| 20260506211822 | -2 | 292 | 4.8 | 9.7 | 0.00 | 0.00 | 0.03 | 6550.2 | |
| 20260506211618 | -2 | 337 | 6.4 | 9.7 | 0.00 | 0.00 | 0.03 | 6550.2 | |
| 20260506211414 | -2 | 65 | 3.2 | 9.7 | 0.00 | 0.00 | 0.03 | 6550.2 | |
| 20260506211210 | -2 | 339 | 4.8 | 9.7 | 0.00 | 0.00 | 0.03 | 6550.2 | |
| 20260506211006 | -2 | 333 | 8.0 | 12.9 | 0.00 | 0.00 | 0.03 | 6550.2 | |
| 20260506210802 | -2 | 310 | 3.2 | 12.9 | 0.00 | 0.00 | 0.03 | 6550.2 | |
| 20260506210558 | -2 | 320 | 11.3 | 11.3 | 0.00 | 0.00 | 0.03 | 6550.2 | |
| 20260506210441 | -2 | 321 | 6.4 | 8.0 | 0.00 | 0.00 | 0.03 | 6550.2 | |
| 20260506210354 | -2 | 321 | 6.4 | 8.0 | 0.00 | 0.00 | 0.03 | 6550.2 | |
| 20260506210150 | -2 | 342 | 3.2 | 8.0 | 0.00 | 0.00 | 0.03 | 6550.2 | |
| 20260506210040 | -2 | 43 | 4.8 | 8.0 | 0.00 | 0.00 | 0.03 | 6550.2 | |
| 20260506205946 | -2 | 43 | 4.8 | 8.0 | 0.00 | 0.00 | 0.03 | 6550.2 | |
| 20260506205742 | -2 | 315 | 1.6 | 8.0 | 0.00 | 0.00 | 0.03 | 6550.2 | |
| 20260506205538 | -2 | 345 | 3.2 | 11.3 | 0.00 | 0.00 | 0.03 | 6550.2 | |
| 20260506205334 | -2 | 335 | 8.0 | 11.3 | 0.00 | 0.00 | 0.03 | 6550.2 | |
| 20260506205130 | -2 | 329 | 8.0 | 11.3 | 0.00 | 0.00 | 0.03 | 6550.2 | |
| 20260506204926 | -2 | 325 | 3.2 | 11.3 | 0.00 | 0.00 | 0.03 | 6550.2 | |
| 20260506204722 | -2 | 296 | 9.7 | 9.7 | 0.00 | 0.00 | 0.03 | 6550.2 | |
| 20260506204518 | -2 | 316 | 1.6 | 9.7 | 0.00 | 0.00 | 0.03 | 6550.2 | |
| 20260506204314 | -2 | 343 | 6.4 | 8.0 | 0.00 | 0.00 | 0.03 | 6550.2 | |
| 20260506204110 | -2 | 305 | 3.2 | 9.7 | 0.00 | 0.00 | 0.03 | 6550.2 | |
| 20260506203955 | -2 | 303 | 4.8 | 9.7 | 0.00 | 0.00 | 0.03 | 6550.2 | |
| 20260506203906 | -2 | 303 | 4.8 | 9.7 | 0.00 | 0.00 | 0.03 | 6550.2 | |
| 20260506203702 | -2 | 285 | 6.4 | 11.3 | 0.00 | 0.00 | 0.03 | 6550.2 | |
| 20260506203254 | -2 | 315 | 11.3 | 11.3 | 0.00 | 0.00 | 0.03 | 6550.2 | |
| 20260506203050 | -2 | 322 | 4.8 | 11.3 | 0.00 | 0.00 | 0.03 | 6550.2 | |
| 20260506202937 | -2 | 331 | 8.0 | 11.3 | 0.00 | 0.00 | 0.03 | 6550.2 | |
| 20260506202846 | -2 | 331 | 8.0 | 11.3 | 0.00 | 0.00 | 0.03 | 6550.2 | |
| 20260506202714 | -2 | 305 | 8.0 | 12.9 | 0.00 | 0.00 | 0.00 | 6550.2 | |
| 20260506202643 | -2 | 305 | 8.0 | 12.9 | 0.00 | 0.00 | 0.00 | 6550.2 | |
| 20260506202438 | -2 | 299 | 4.8 | 12.9 | 0.00 | 0.00 | 0.00 | 6550.2 | |
| 20260506202235 | -2 | 348 | 8.0 | 12.9 | 0.00 | 0.00 | 0.00 | 6550.2 | |
| 20260506202030 | -2 | 326 | 9.7 | 14.5 | 0.00 | 0.00 | 0.00 | 6550.2 | |
| 20260506201827 | -2 | 347 | 8.0 | 14.5 | 0.00 | 0.00 | 0.00 | 6550.2 | |
| 20260506201419 | -2 | 334 | 8.0 | 9.7 | 0.00 | 0.00 | 0.00 | 6550.2 | |
| 20260506201214 | -2 | 322 | 4.8 | 11.3 | 0.00 | 0.00 | 0.00 | 6550.2 | |
| 20260506201011 | -2 | 301 | 6.4 | 14.5 | 0.00 | 0.00 | 0.00 | 6550.2 | |
| 20260506200603 | -2 | 325 | 6.4 | 14.5 | 0.00 | 0.00 | 0.00 | 6550.2 | |
| 20260506200300 | -2 | 298 | 3.2 | 8.0 | 0.00 | 0.00 | 0.00 | 6550.2 | |
| 20260506200155 | -2 | 298 | 3.2 | 8.0 | 0.00 | 0.00 | 0.00 | 6550.2 | |
| 20260506195950 | -2 | 303 | 4.8 | 8.0 | 0.00 | 0.00 | 0.00 | 6550.2 | |
| 20260506195747 | -2 | 312 | 6.4 | 14.5 | 0.00 | 0.00 | 0.00 | 6550.2 | |
| 20260506195542 | -2 | 319 | 4.8 | 14.5 | 0.00 | 0.00 | 0.00 | 6550.2 | |
| 20260506195417 | -2 | 259 | 3.2 | 11.3 | 0.00 | 0.00 | 0.00 | 6550.2 | |
| 20260506195339 | -2 | 259 | 3.2 | 11.3 | 0.00 | 0.00 | 0.00 | 6550.2 | |
| 20260506195134 | -2 | 302 | 9.7 | 11.3 | 0.00 | 0.00 | 0.00 | 6550.2 | |
| 20260506194931 | -2 | 298 | 3.2 | 9.7 | 0.00 | 0.00 | 0.00 | 6550.2 | |
| 20260506194727 | -2 | 323 | 8.0 | 11.3 | 0.00 | 0.00 | 0.00 | 6550.2 | |
| 20260506194523 | -2 | 284 | 3.2 | 11.3 | 0.00 | 0.00 | 0.00 | 6550.2 | |
| 20260506194318 | -2 | 303 | 6.4 | 16.1 | 0.00 | 0.00 | 0.00 | 6550.2 | |
| 20260506194115 | -2 | 301 | 11.3 | 16.1 | 0.00 | 0.00 | 0.00 | 6550.2 | |
| 20260506193911 | -2 | 314 | 9.7 | 16.1 | 0.00 | 0.00 | 0.00 | 6550.2 | |
| 20260506193707 | -2 | 320 | 4.8 | 12.9 | 0.00 | 0.00 | 0.00 | 6550.2 | |
| 20260506193503 | -2 | 338 | 8.0 | 12.9 | 0.00 | 0.00 | 0.00 | 6550.2 | |
| 20260506193259 | -2 | 329 | 3.2 | 9.7 | 0.00 | 0.00 | 0.00 | 6550.2 | |
| 20260506193055 | -2 | 331 | 3.2 | 9.7 | 0.00 | 0.00 | 0.00 | 6550.2 | |
| 20260506192851 | -2 | 296 | 6.4 | 11.3 | 0.00 | 0.00 | 0.00 | 6550.2 | |
| 20260506192647 | -2 | 322 | 8.0 | 11.3 | 0.00 | 0.00 | 0.00 | 6550.2 | |
| 20260506192443 | -2 | 288 | 11.3 | 12.9 | 0.00 | 0.00 | 0.00 | 6550.2 | |
| 20260506192239 | -2 | 280 | 3.2 | 12.9 | 0.00 | 0.00 | 0.00 | 6550.2 | |
| 20260506192035 | -2 | 289 | 4.8 | 12.9 | 0.00 | 0.00 | 0.00 | 6550.2 | |
| 20260506191831 | -2 | 300 | 9.7 | 12.9 | 0.00 | 0.00 | 0.00 | 6550.2 | |
| 20260506191627 | -2 | 305 | 3.2 | 16.1 | 0.00 | 0.00 | 0.00 | 6550.2 | |
| 20260506191456 | -2 | 327 | 6.4 | 16.1 | 0.00 | 0.00 | 0.00 | 6550.2 | |
| 20260506191423 | -2 | 327 | 6.4 | 16.1 | 0.00 | 0.00 | 0.00 | 6550.2 | |
| 20260506191219 | -2 | 291 | 8.0 | 12.9 | 0.00 | 0.00 | 0.00 | 6550.2 | |
| 20260506191052 | -2 | 274 | 6.4 | 16.1 | 0.00 | 0.00 | 0.00 | 6550.2 | |
| 20260506191015 | -2 | 274 | 6.4 | 16.1 | 0.00 | 0.00 | 0.00 | 6550.2 | |
| 20260506190811 | -2 | 298 | 6.4 | 16.1 | 0.00 | 0.00 | 0.00 | 6550.2 | |
| 20260506190607 | -2 | 299 | 11.3 | 16.1 | 0.00 | 0.00 | 0.00 | 6550.2 | |
| 20260506190403 | -2 | 291 | 11.3 | 14.5 | 0.00 | 0.00 | 0.00 | 6550.2 | |
| 20260506190159 | -2 | 329 | 9.7 | 14.5 | 0.00 | 0.00 | 0.00 | 6550.2 | |
| 20260506185955 | -2 | 292 | 8.0 | 17.7 | 0.00 | 0.00 | 0.00 | 6550.2 | |
| 20260506185751 | -2 | 294 | 8.0 | 17.7 | 0.00 | 0.00 | 0.00 | 6550.2 | |
| 20260506185547 | -2 | 313 | 8.0 | 14.5 | 0.00 | 0.00 | 0.00 | 6550.2 | |
| 20260506185343 | -2 | 296 | 8.0 | 14.5 | 0.00 | 0.00 | 0.00 | 6550.2 | |
| 20260506185139 | -2 | 290 | 14.5 | 14.5 | 0.00 | 0.00 | 0.00 | 6550.2 | |
| 20260506184935 | -2 | 290 | 9.7 | 16.1 | 0.00 | 0.00 | 0.00 | 6550.2 | |
| 20260506184731 | -2 | 312 | 8.0 | 16.1 | 0.00 | 0.00 | 0.00 | 6550.2 | |
| 20260506184527 | -2 | 293 | 9.7 | 16.1 | 0.00 | 0.00 | 0.00 | 6550.2 | |
| 20260506184323 | -2 | 294 | 8.0 | 12.9 | 0.00 | 0.00 | 0.00 | 6550.2 | |
| 20260506184119 | -2 | 308 | 11.3 | 12.9 | 0.00 | 0.00 | 0.00 | 6550.2 | |
| 20260506183915 | -2 | 300 | 11.3 | 12.9 | 0.00 | 0.00 | 0.00 | 6550.2 | |
| 20260506183711 | -2 | 312 | 3.2 | 12.9 | 0.00 | 0.00 | 0.00 | 6550.2 | |
| 20260506183507 | -2 | 296 | 9.7 | 16.1 | 0.00 | 0.00 | 0.00 | 6550.2 | |
| 20260506183349 | -2 | 297 | 8.0 | 16.1 | 0.00 | 0.00 | 0.00 | 6550.2 | |
| 20260506183303 | -2 | 297 | 8.0 | 16.1 | 0.00 | 0.00 | 0.00 | 6550.2 | |
| 20260506183059 | -2 | 301 | 11.3 | 16.1 | 0.00 | 0.00 | 0.00 | 6550.2 | |
| 20260506182855 | -2 | 287 | 11.3 | 16.1 | 0.00 | 0.00 | 0.00 | 6550.2 | |
| 20260506182243 | -2 | 315 | 6.4 | 12.9 | 0.00 | 0.00 | 0.00 | 6550.2 | |
| 20260506182039 | -2 | 325 | 11.3 | 16.1 | 0.00 | 0.00 | 0.00 | 6550.2 | |
| 20260506181835 | -2 | 318 | 12.9 | 16.1 | 0.00 | 0.00 | 0.00 | 6550.2 | |
| 20260506181427 | -2 | 317 | 8.0 | 16.1 | 0.00 | 0.00 | 0.00 | 6550.2 | |
| 20260506181020 | -2 | 112 | 3.2 | 3.2 | 0.00 | 0.00 | 0.00 | 6550.2 | |
| 20260506180651 | -2 | 302 | 11.3 | 16.1 | 0.00 | 0.00 | 0.00 | 6550.2 | |
| 20260506180243 | -2 | 266 | 12.9 | 17.7 | 0.00 | 0.00 | 0.00 | 6550.2 | |
| 20260506180039 | -2 | 290 | 11.3 | 22.5 | 0.00 | 0.00 | 0.00 | 6550.2 | |
| 20260506175835 | -2 | 309 | 12.9 | 22.5 | 0.00 | 0.00 | 0.00 | 6550.2 | |
| 20260506175631 | -2 | 289 | 14.5 | 14.5 | 0.00 | 0.00 | 0.00 | 6550.2 | |
| 20260506175428 | -2 | 294 | 12.9 | 16.1 | 0.00 | 0.00 | 0.00 | 6550.2 | |
| 20260506175223 | -2 | 295 | 12.9 | 16.1 | 0.00 | 0.00 | 0.00 | 6550.2 | |
| 20260506175020 | -2 | 308 | 6.4 | 16.1 | 0.00 | 0.00 | 0.00 | 6550.2 | |
| 20260506174815 | -2 | 311 | 9.7 | 14.5 | 0.00 | 0.00 | 0.00 | 6550.2 | |
| 20260506174612 | -2 | 293 | 12.9 | 16.1 | 0.00 | 0.00 | 0.00 | 6550.2 | |
| 20260506174204 | -2 | 279 | 12.9 | 19.3 | 0.00 | 0.00 | 0.00 | 6550.2 | |
| 20260506173959 | -2 | 316 | 16.1 | 20.9 | 0.00 | 0.00 | 0.00 | 6550.2 | |
| 20260506173756 | -2 | 302 | 16.1 | 20.9 | 0.00 | 0.00 | 0.00 | 6550.2 | |
| 20260506173348 | -2 | 288 | 9.7 | 16.1 | 0.00 | 0.00 | 0.00 | 6550.2 | |
| 20260506172940 | -2 | 292 | 4.8 | 17.7 | 0.00 | 0.00 | 0.00 | 6550.2 | |
| 20260506172735 | -2 | 304 | 14.5 | 17.7 | 0.00 | 0.00 | 0.00 | 6550.2 | |
| 20260506172532 | -2 | 304 | 11.3 | 17.7 | 0.00 | 0.00 | 0.00 | 6550.2 | |
| 20260506172327 | -2 | 313 | 16.1 | 17.7 | 0.00 | 0.00 | 0.00 | 6550.2 | |
| 20260506172124 | -2 | 308 | 8.0 | 16.1 | 0.00 | 0.00 | 0.00 | 6550.2 | |
| 20260506171716 | -2 | 303 | 16.1 | 16.1 | 0.00 | 0.00 | 0.00 | 6550.2 | |
| 20260506171511 | -2 | 306 | 17.7 | 33.8 | 0.00 | 0.00 | 0.00 | 6550.2 | |
| 20260506170900 | -2 | 313 | 12.9 | 19.3 | 0.00 | 0.00 | 0.00 | 6550.2 | |
| 20260506170248 | -2 | 275 | 11.3 | 17.7 | 0.00 | 0.00 | 0.00 | 6550.2 | |
| 20260506162536 | -2 | 337 | 11.3 | 14.5 | 0.00 | 0.00 | 0.00 | 6550.2 | |
| 20260506162128 | -2 | 295 | 12.9 | 16.1 | 0.00 | 0.00 | 0.00 | 6550.2 | |
| 20260506161924 | -2 | 330 | 9.7 | 16.1 | 0.00 | 0.00 | 0.00 | 6550.2 | |
| 20260506160700 | -2 | 290 | 9.7 | 16.1 | 0.00 | 0.00 | 0.00 | 6550.2 | |
| 20260506160048 | -2 | 284 | 8.0 | 20.9 | 0.00 | 0.00 | 0.00 | 6550.2 | |
| 20260506154212 | -2 | 339 | 12.9 | 16.1 | 0.00 | 0.00 | 0.00 | 6550.2 | |
| 20260506145026 | -2 | 309 | 8.0 | 14.5 | 0.00 | 0.00 | 0.00 | 6550.2 | |
| 20260506144211 | -2 | 301 | 9.7 | 12.9 | 0.00 | 0.00 | 0.00 | 6550.2 | |
| 20260506144006 | -2 | 322 | 4.8 | 9.7 | 0.00 | 0.00 | 0.00 | 6550.2 | |
| 20260506140159 | -2 | 23 | 6.4 | 8.0 | 0.00 | 0.00 | 0.00 | 6550.2 | |
| 20260506135955 | -2 | 4 | 4.8 | 12.9 | 0.00 | 0.00 | 0.00 | 6550.2 | |
| 20260506135343 | -2 | 285 | 11.3 | 16.1 | 0.00 | 0.00 | 0.00 | 6550.2 | |
| 20260506134935 | -2 | 307 | 9.7 | 17.7 | 0.00 | 0.00 | 0.00 | 6550.2 | |
| 20260506134527 | -2 | 290 | 9.7 | 11.3 | 0.00 | 0.00 | 0.00 | 6550.2 | |
| 20260506134323 | -2 | 326 | 8.0 | 11.3 | 0.00 | 0.00 | 0.00 | 6550.2 | |
| 20260506134119 | -2 | 277 | 4.8 | 17.7 | 0.00 | 0.00 | 0.00 | 6550.2 | |
| 20260506125755 | -2 | 283 | 3.2 | 14.5 | 0.00 | 0.00 | 0.00 | 6550.2 | |
| 20260506125551 | -2 | 311 | 11.3 | 16.1 | 0.00 | 0.00 | 0.00 | 6550.2 | |
| 20260506125347 | -2 | 342 | 9.7 | 16.1 | 0.00 | 0.00 | 0.00 | 6550.2 | |
| 20260506125143 | -2 | 308 | 8.0 | 16.1 | 0.00 | 0.00 | 0.00 | 6550.2 | |
| 20260506124940 | -2 | 316 | 3.2 | 14.5 | 0.00 | 0.00 | 0.00 | 6550.2 | |
| 20260506121024 | -2 | 280 | 4.8 | 11.3 | 0.00 | 0.00 | 0.00 | 6550.2 | |
| 20260506120820 | -2 | 274 | 3.2 | 19.3 | 0.00 | 0.00 | 0.00 | 6550.2 | |
| 20260506120616 | -2 | 294 | 8.0 | 19.3 | 0.00 | 0.00 | 0.00 | 6550.2 | |
| 20260506120208 | -2 | 272 | 6.4 | 12.9 | 0.00 | 0.00 | 0.00 | 6550.2 | |
| 20260506120004 | -2 | 351 | 6.4 | 12.9 | 0.00 | 0.00 | 0.00 | 6550.2 | |
| 20260506114332 | -2 | 313 | 16.1 | 22.5 | 0.00 | 0.00 | 0.00 | 6550.2 | |
| 20260506114128 | -2 | 274 | 4.8 | 8.0 | 0.00 | 0.00 | 0.00 | 6550.2 | |
| 20260506113839 | -2 | 60 | 12.9 | 12.9 | 0.00 | 0.00 | 0.03 | 6550.2 | |
| 20260506113635 | -2 | 56 | 4.8 | 11.3 | 0.00 | 0.00 | 0.03 | 6550.2 | |
| 20260506112233 | -2 | 328 | 16.1 | 16.1 | 0.00 | 0.00 | 0.03 | 6550.2 | |
| 20260506105355 | -2 | 278 | 8.0 | 11.3 | 0.00 | 0.00 | 0.03 | 6550.2 | |
| 20260506102416 | -2 | 317 | 6.4 | 11.3 | 0.00 | 0.00 | 0.00 | 6550.2 | |
| 20260506102007 | -2 | 277 | 3.2 | 12.9 | 0.00 | 0.00 | 0.00 | 6550.2 | |
| 20260506101623 | -2 | 286 | 6.4 | 9.7 | 0.00 | 0.00 | 0.00 | 6550.2 | |
| 20260506101226 | -2 | 318 | 4.8 | 12.9 | 0.00 | 0.00 | 0.00 | 6550.2 | |
| 20260506101152 | -2 | 318 | 4.8 | 12.9 | 0.00 | 0.00 | 0.00 | 6550.2 | |
| 20260506100805 | -2 | 306 | 9.7 | 11.3 | 0.00 | 0.00 | 0.00 | 6550.2 | |
| 20260506100556 | -2 | 311 | 6.4 | 12.9 | 0.00 | 0.00 | 0.00 | 6550.2 | |
| 20260506100144 | -2 | 355 | 6.4 | 11.3 | 0.00 | 0.00 | 0.00 | 6550.2 | |
| 20260506100034 | -2 | 355 | 6.4 | 12.9 | 0.00 | 0.00 | 0.00 | 6550.2 | |
| 20260506095928 | -2 | 355 | 6.4 | 12.9 | 0.00 | 0.00 | 0.00 | 6550.2 | |
| 20260506095557 | -2 | 340 | 8.0 | 12.9 | 0.00 | 0.00 | 0.00 | 6550.2 | |
| 20260506095316 | -2 | 328 | 4.8 | 9.7 | 0.00 | 0.00 | 0.00 | 6550.2 | |
| 20260506094936 | -2 | 319 | 3.2 | 14.5 | 0.00 | 0.00 | 0.00 | 6550.2 | |
| 20260506094730 | -2 | 308 | 9.7 | 14.5 | 0.00 | 0.00 | 0.00 | 6550.2 | |
| 20260506094214 | -2 | 339 | 8.0 | 11.3 | 0.00 | 0.00 | 0.00 | 6550.2 | |
| 20260506091446 | -2 | 291 | 9.7 | 11.3 | 0.00 | 0.00 | 0.00 | 6550.2 | |
| 20260506091242 | -2 | 329 | 6.4 | 11.3 | 0.00 | 0.00 | 0.00 | 6550.2 | |
| 20260506091039 | -2 | 325 | 6.4 | 9.7 | 0.00 | 0.00 | 0.00 | 6550.2 | |
| 20260506090630 | -2 | 51 | 6.4 | 8.0 | 0.00 | 0.00 | 0.00 | 6550.2 | |
| 20260506090426 | -2 | 38 | 6.4 | 9.7 | 0.00 | 0.00 | 0.00 | 6550.2 | |
| 20260506090222 | -2 | 27 | 4.8 | 9.7 | 0.00 | 0.00 | 0.00 | 6550.2 | |
| 20260506090018 | -2 | 347 | 3.2 | 9.7 | 0.00 | 0.00 | 0.00 | 6550.2 | |
| 20260506085814 | -2 | 274 | 3.2 | 11.3 | 0.00 | 0.00 | 0.00 | 6550.2 | |
| 20260506085610 | -2 | 58 | 1.6 | 11.3 | 0.00 | 0.00 | 0.00 | 6550.2 | |
| 20260506085406 | -2 | 316 | 4.8 | 11.3 | 0.00 | 0.00 | 0.00 | 6550.2 | |
| 20260506085202 | -2 | 322 | 4.8 | 6.4 | 0.00 | 0.00 | 0.00 | 6550.2 | |
| 20260506084550 | -2 | 320 | 6.4 | 9.7 | 0.00 | 0.00 | 0.00 | 6550.2 | |
| 20260506084347 | -2 | 283 | 3.2 | 9.7 | 0.00 | 0.00 | 0.00 | 6550.2 | |
| 20260506083939 | -2 | 328 | 4.8 | 8.0 | 0.00 | 0.00 | 0.00 | 6550.2 | |
| 20260506083825 | -2 | 319 | 6.4 | 9.7 | 0.00 | 0.00 | 0.00 | 6550.2 | |
| 20260506083122 | -2 | 334 | 8.0 | 9.7 | 0.00 | 0.00 | 0.00 | 6550.2 | |
| 20260506082918 | -2 | 301 | 4.8 | 8.0 | 0.00 | 0.00 | 0.00 | 6550.2 | |
| 20260506082510 | -2 | 343 | 6.4 | 8.0 | 0.00 | 0.00 | 0.00 | 6550.2 | |
| 20260506082313 | -2 | 44 | 4.8 | 6.4 | 0.00 | 0.00 | 0.00 | 6550.2 | |
| 20260506082306 | -2 | 103 | 0.0 | 0.0 | 0.00 | 0.00 | 0.00 | 6550.2 | |
| 20260506082234 | -2 | 44 | 4.8 | 6.4 | 0.00 | 0.00 | 0.00 | 6550.2 | |
| 20260506082029 | -2 | 37 | 3.2 | 3.2 | 0.00 | 0.00 | 0.00 | 6550.2 | |
| 20260506081827 | -2 | 347 | 1.6 | 4.8 | 0.00 | 0.00 | 0.00 | 6550.2 | |
| 20260506081622 | -2 | 349 | 1.6 | 8.0 | 0.00 | 0.00 | 0.00 | 6550.2 | |
| 20260506081418 | -2 | 27 | 3.2 | 8.0 | 0.00 | 0.00 | 0.00 | 6550.2 | |
| 20260506081011 | -2 | 325 | 3.2 | 9.7 | 0.00 | 0.00 | 0.00 | 6550.2 | |
| 20260506080806 | -2 | 23 | 8.0 | 9.7 | 0.00 | 0.00 | 0.00 | 6550.2 | |
| 20260506080603 | -2 | 11 | 3.2 | 4.8 | 0.00 | 0.00 | 0.00 | 6550.2 | |
| 20260506080358 | -2 | 270 | 0.0 | 4.8 | 0.00 | 0.00 | 0.00 | 6550.2 | |
| 20260506080154 | -2 | 101 | 0.0 | 0.0 | 0.00 | 0.00 | 0.00 | 6550.2 | |
| 20260506080149 | -2 | 60 | 1.6 | 6.4 | 0.00 | 0.00 | 0.00 | 6550.2 | |
| 20260506073457 | -2 | 6 | 1.6 | 6.4 | 0.00 | 0.00 | 0.00 | 6550.2 | |
| 20260506073254 | -2 | 54 | 4.8 | 4.8 | 0.00 | 0.00 | 0.00 | 6550.2 | |
| 20260506073049 | -2 | 315 | 1.6 | 3.2 | 0.00 | 0.00 | 0.00 | 6550.2 | |
| 20260506072845 | -2 | 9 | 3.2 | 3.2 | 0.00 | 0.00 | 0.00 | 6550.2 | |
| 20260506072517 | -2 | 311 | 0.0 | 3.2 | 0.00 | 0.00 | 0.00 | 6550.2 | |
| 20260506072439 | -2 | 311 | 0.0 | 3.2 | 0.00 | 0.00 | 0.00 | 6550.2 | |
| 20260506072234 | -2 | 315 | 0.0 | 1.6 | 0.00 | 0.00 | 0.00 | 6550.2 | |
| 20260506072029 | -2 | 0 | 0.0 | 3.2 | 0.00 | 0.00 | 0.00 | 6550.2 | |
| 20260506071826 | -2 | 180 | 0.0 | 3.2 | 0.00 | 0.00 | 0.00 | 6550.2 | |
| 20260506071505 | -2 | 315 | 0.0 | 3.2 | 0.00 | 0.00 | 0.00 | 6550.2 | |
| 20260506071418 | -2 | 315 | 0.0 | 3.2 | 0.00 | 0.00 | 0.00 | 6550.2 | |
| 20260506071214 | -2 | 45 | 1.6 | 4.8 | 0.00 | 0.00 | 0.00 | 6550.2 | |
| 20260506071010 | -2 | 348 | 3.2 | 4.8 | 0.00 | 0.00 | 0.00 | 6550.2 | |
| 20260506070805 | -2 | 278 | 1.6 | 4.8 | 0.00 | 0.00 | 0.00 | 6550.2 | |
| 20260506070602 | -2 | 8 | 4.8 | 4.8 | 0.00 | 0.00 | 0.00 | 6550.2 | |
| 20260506070225 | -2 | 50 | 3.2 | 4.8 | 0.00 | 0.00 | 0.00 | 6550.2 | |
| 20260506070154 | -2 | 50 | 3.2 | 4.8 | 0.00 | 0.00 | 0.00 | 6550.2 | |
| 20260506062505 | -2 | 89 | 0.0 | 0.0 | 0.00 | 0.00 | 0.08 | 6550.2 | |
| 20260506062412 | -2 | 89 | 0.0 | 0.0 | 0.00 | 0.00 | 0.08 | 6550.2 | |
| 20260506062208 | -2 | 102 | 0.0 | 1.6 | 0.00 | 0.00 | 0.08 | 6550.2 | |
| 20260506062004 | -2 | 135 | 0.0 | 1.6 | 0.00 | 0.00 | 0.08 | 6550.2 | |
| 20260506061800 | -2 | 135 | 0.0 | 1.6 | 0.00 | 0.00 | 0.08 | 6550.2 | |
| 20260506061555 | -2 | 123 | 0.0 | 0.0 | 0.00 | 0.00 | 0.08 | 6550.2 | |
| 20260506061424 | -2 | 45 | 0.0 | 0.0 | 0.00 | 0.00 | 0.08 | 6550.2 | |
| 20260506061352 | -2 | 45 | 0.0 | 0.0 | 0.00 | 0.00 | 0.08 | 6550.2 | |
| 20260506061150 | -2 | 101 | 0.0 | 0.0 | 0.00 | 0.00 | 0.08 | 6550.2 | |
| 20260506060944 | -2 | 135 | 0.0 | 0.0 | 0.00 | 0.00 | 0.08 | 6550.2 | |
| 20260506060739 | -2 | 315 | 0.0 | 4.8 | 0.00 | 0.00 | 0.08 | 6550.2 | |
| 20260506060536 | -2 | 315 | 0.0 | 4.8 | 0.00 | 0.00 | 0.08 | 6550.2 | |
| 20260506060331 | -2 | 42 | 3.2 | 4.8 | 0.00 | 0.00 | 0.08 | 6550.2 | |
| 20260506060128 | -2 | 90 | 0.0 | 1.6 | 0.00 | 0.00 | 0.08 | 6550.2 | |
| 20260506051356 | -2 | 115 | 1.6 | 3.2 | 0.00 | 0.00 | 0.03 | 6550.2 | |
| 20260506051229 | -2 | 90 | 0.0 | 3.2 | 0.00 | 0.00 | 0.03 | 6550.2 | |
| 20260506051152 | -2 | 90 | 0.0 | 3.2 | 0.00 | 0.00 | 0.03 | 6550.2 | |
| 20260506050948 | -2 | 135 | 1.6 | 4.8 | 0.00 | 0.00 | 0.03 | 6550.2 | |
| 20260506050744 | -2 | 97 | 1.6 | 4.8 | 0.00 | 0.00 | 0.03 | 6550.2 | |
| 20260506050540 | -2 | 90 | 1.6 | 4.8 | 0.00 | 0.00 | 0.03 | 6550.2 | |
| 20260506050413 | -2 | 110 | 3.2 | 3.2 | 0.00 | 0.00 | 0.03 | 6550.2 | |
| 20260506050336 | -2 | 110 | 3.2 | 3.2 | 0.00 | 0.00 | 0.03 | 6550.2 | |
| 20260506050132 | -2 | 104 | 1.6 | 3.2 | 0.00 | 0.00 | 0.03 | 6550.2 | |
| 20260506045112 | -2 | 90 | 0.0 | 1.6 | 0.00 | 0.00 | 0.03 | 6550.2 | |
| 20260506044908 | -2 | 69 | 1.6 | 1.6 | 0.00 | 0.00 | 0.03 | 6550.2 |